Visibility
15.0 15.0 15.0 15.0 15.0 15.0 15.0 15.0 15.0 15.0 15.0 15.0 15.0 15.0 15.0 15.0 15.0 15.0 11.9 14.2 15.0 15.0 15.0 15.0 15.0 13.8 12.9 14.5 14.3 11.5 6.9 5.3 9.4 0.6 15.0 15.0 15.0 15.0 15.0 15.0 15.0 15.0 15.0
15.0 15.0 15.0 15.0 15.0 15.0 15.0 15.0 15.0 15.0 15.0 15.0 15.0 15.0 6.9 15.0 15.0 15.0 15.0 15.0 15.0 15.0 15.0 14.9 15.0 15.0 6.6 14.8 14.5 12.4 9.8 12.6 6.3 15.0 5.1 14.9 7.1 5.5 15.0 15.0 15.0 15.0 15.0
15.0 15.0 15.0 15.0 15.0 15.0 15.0 15.0 15.0 15.0 15.0 15.0 15.0 11.6 11.6 9.7 15.0 15.0 15.0 15.0 15.0 15.0 15.0 12.9 15.0 9.5 15.0 15.0 15.0 12.8 9.8 11.3 8.8 15.0 15.0 15.0 1.4 10.4 7.4 12.7 2.9 15.0 15.0
15.0 15.0 15.0 15.0 15.0 15.0 15.0 15.0 15.0 15.0 15.0 15.0 13.0 10.9 11.3 15.0 15.0 15.0 15.0 15.0 15.0 15.0 15.0 11.9 12.7 13.6 11.8 13.5 12.4 15.0 8.1 5.9 5.9 10.1 14.5 6.2 6.5 9.9 8.6 3.6 5.6 9.6 5.2
15.0 15.0 15.0 15.0 15.0 15.0 15.0 15.0 15.0 15.0 15.0 5.0 15.0 15.0 13.2 15.0 15.0 15.0 15.0 15.0 15.0 15.0 15.0 15.0 15.0 12.8 15.0 11.7 8.1 11.8 7.4 6.6 5.1 8.1 13.0 9.4 11.8 15.0 15.0 15.0 15.0 15.0 14.1
15.0 15.0 15.0 15.0 15.0 15.0 15.0 15.0 15.0 15.0 15.0 14.9 15.0 10.3 15.0 15.0 15.0 15.0 15.0 15.0 15.0 15.0 15.0 15.0 15.0 14.9 13.5 15.0 15.0 15.0 5.3 11.5 4.7 15.0 15.0 8.5 15.0 15.0 15.0 15.0 15.0 7.0 14.9
15.0 15.0 15.0 15.0 15.0 15.0 15.0 15.0 15.0 15.0 15.0 15.0 15.0 15.0 15.0 15.0 15.0 15.0 15.0 15.0 15.0 15.0 15.0 15.0 14.6 9.5 14.3 9.7 13.9 15.0 5.4 3.9 2.9 12.0 13.9 12.2 15.0 15.0 13.3 15.0 15.0 15.0 14.6
15.0 15.0 15.0 15.0 15.0 15.0 15.0 15.0 15.0 15.0 15.0 15.0 15.0 15.0 15.0 15.0 15.0 15.0 13.1 15.0 15.0 15.0 15.0 15.0 15.0 9.7 8.8 4.8 4.5 4.7 10.4 9.5 10.2 15.0 11.7 15.0 15.0 9.8 15.0 15.0 15.0 15.0 14.5
15.0 15.0 15.0 15.0 15.0 15.0 15.0 15.0 15.0 15.0 15.0 13.9 15.0 15.0 13.4 15.0 15.0 15.0 15.0 13.8 0.3 1.0 15.0 15.0 7.1 6.9 13.1 2.2 9.2 7.3 3.7 8.5 15.0 15.0 15.0 15.0 15.0 15.0 15.0 15.0 15.0 15.0 14.7
15.0 15.0 15.0 15.0 15.0 15.0 15.0 15.0 15.0 15.0 9.3 15.0 15.0 15.0 14.4 15.0 15.0 14.9 8.2 0.1 0.0 0.1 0.1 0.2 14.9 1.0 3.0 0.3 2.8 6.4 3.5 11.6 14.6 5.9 14.0 15.0 1.9 15.0 0.4 8.2 15.0 15.0 12.3
15.0 15.0 15.0 15.0 15.0 15.0 15.0 15.0 15.0 13.9 9.3 15.0 15.0 15.0 15.0 15.0 15.0 7.3 2.7 0.1 0.0 0.1 0.4 15.0 11.4 0.4 0.1 14.1 5.2 3.1 2.1 2.5 6.1 10.7 11.7 15.0 15.0 11.9 15.0 15.0 15.0 15.0 15.0
15.0 15.0 15.0 15.0 15.0 15.0 15.0 8.7 15.0 13.6 9.5 15.0 15.0 15.0 15.0 15.0 15.0 5.9 3.0 3.3 4.1 0.2 0.1 0.0 0.0 0.0 0.0 0.0 0.1 0.0 0.0 0.7 13.6 10.0 8.7 5.1 5.4 5.0 5.8 6.3 4.9 11.2 15.0
15.0 15.0 15.0 15.0 15.0 15.0 15.0 15.0 15.0 15.0 15.0 15.0 15.0 15.0 15.0 15.0 15.0 6.8 7.4 6.7 2.0 1.9 2.4 0.3 0.4 0.1 0.1 0.6 0.2 0.1 0.0 0.5 15.0 15.0 3.8 3.6 4.4 5.2 14.3 14.2 14.0 4.1 4.6
15.0 15.0 15.0 15.0 15.0 15.0 15.0 15.0 15.0 15.0 15.0 15.0 15.0 15.0 15.0 15.0 15.0 15.0 0.3 4.0 3.2 3.6 2.6 1.6 3.3 3.1 7.8 13.7 14.4 13.6 15.0 11.5 1.1 0.1 0.3 2.9 15.0 5.7 0.1 2.6 12.6 5.5 7.3
15.0 15.0 15.0 15.0 15.0 15.0 15.0 15.0 15.0 12.8 8.6 15.0 15.0 15.0 15.0 15.0 15.0 13.6 0.1 8.4 4.6 1.0 0.1 4.3 8.3 4.6 4.0 4.6 7.7 5.9 6.7 3.8 8.1 11.0 8.0 15.0 12.6 14.8 15.0 14.1 8.1 4.1 1.4
5.3 15.0 15.0 15.0 15.0 15.0 15.0 15.0 0.2 2.5 0.0 0.0 0.0 2.5 15.0 15.0 15.0 15.0 15.0 12.2 10.8 12.5 2.8 3.2 14.8 15.0 15.0 15.0 15.0 15.0 14.3 15.0 15.0 15.0 14.7 12.6 4.8 5.5 4.6 4.5 8.4 6.5 4.8
15.0 15.0 15.0 15.0 15.0 15.0 15.0 15.0 15.0 0.2 0.0 0.0 15.0 14.5 0.2 14.0 15.0 15.0 15.0 15.0 15.0 15.0 10.4 4.8 15.0 7.4 15.0 15.0 15.0 15.0 15.0 15.0 15.0 15.0 7.5 15.0 12.5 14.7 8.3 15.0 15.0 15.0 14.9
15.0 11.9 15.0 15.0 15.0 15.0 15.0 15.0 15.0 12.3 15.0 15.0 15.0 8.5 15.0 15.0 15.0 15.0 15.0 15.0 15.0 15.0 15.0 15.0 15.0 10.9 12.9 8.6 6.6 13.3 10.7 6.8 10.6 14.3 13.0 7.0 10.6 14.1 8.2 14.9 15.0 15.0 15.0
9.9 15.0 15.0 15.0 15.0 15.0 15.0 15.0 15.0 15.0 15.0 15.0 15.0 15.0 15.0 15.0 15.0 15.0 15.0 15.0 15.0 15.0 15.0 15.0 15.0 15.0 15.0 15.0 15.0 14.2 15.0 15.0 15.0 15.0 15.0 15.0 15.0 14.4 5.9 12.5 15.0 15.0 15.0
15.0 15.0 15.0 15.0 6.5 15.0 15.0 15.0 15.0 15.0 15.0 15.0 15.0 15.0 15.0 15.0 15.0 15.0 15.0 15.0 15.0 15.0 15.0 15.0 15.0 15.0 15.0 15.0 15.0 15.0 15.0 15.0 15.0 15.0 15.0 15.0 15.0 15.0 15.0 15.0 9.6 10.4 13.8
15.0 10.5 9.8 15.0 15.0 15.0 15.0 14.5 15.0 15.0 15.0 15.0 15.0 15.0 15.0 15.0 15.0 15.0 15.0 15.0 15.0 15.0 15.0 15.0 15.0 15.0 15.0 15.0 15.0 15.0 15.0 15.0 15.0 15.0 15.0 15.0 15.0 15.0 15.0 15.0 15.0 15.0 15.0
15.0 13.9 10.0 4.4 15.0 5.8 11.4 15.0 13.5 15.0 15.0 15.0 15.0 15.0 15.0 15.0 15.0 15.0 15.0 15.0 15.0 15.0 15.0 15.0 15.0 15.0 15.0 15.0 15.0 15.0 15.0 15.0 15.0 15.0 15.0 15.0 15.0 15.0 15.0 15.0 15.0 15.0 15.0
15.0 15.0 15.0 5.8 15.0 15.0 14.3 15.0 15.0 15.0 15.0 15.0 15.0 15.0 15.0 15.0 15.0 15.0 15.0 15.0 15.0 15.0 15.0 15.0 15.0 15.0 15.0 15.0 15.0 15.0 15.0 15.0 15.0 15.0 15.0 15.0 15.0 15.0 15.0 15.0 15.0 15.0 15.0
15.0 15.0 15.0 15.0 15.0 10.0 8.2 15.0 15.0 15.0 15.0 15.0 15.0 15.0 15.0 15.0 15.0 15.0 15.0 15.0 15.0 15.0 15.0 15.0 15.0 15.0 15.0 15.0 15.0 15.0 15.0 15.0 15.0 15.0 15.0 15.0 15.0 15.0 15.0 15.0 15.0 15.0 15.0
15.0 15.0 15.0 10.5 15.0 15.0 15.0 15.0 15.0 15.0 15.0 15.0 15.0 15.0 15.0 15.0 15.0 15.0 15.0 15.0 15.0 15.0 15.0 15.0 15.0 15.0 15.0 15.0 15.0 15.0 0.2 15.0 8.1 0.2 15.0 15.0 15.0 15.0 15.0 15.0 15.0 15.0 15.0
15.0 15.0 15.0 15.0 15.0 15.0 15.0 15.0 15.0 15.0 15.0 15.0 15.0 15.0 15.0 15.0 15.0 15.0 15.0 15.0 15.0 15.0 15.0 15.0 15.0 15.0 15.0 15.0 12.0 0.4 15.0 15.0 11.3 15.0 10.5 15.0 15.0 15.0 15.0 15.0 15.0 15.0 15.0